AEZ2135 LICB-LIMZ

Flight info

Callsign AEZ2135
Flight time 1h 40m
Altitude 34000
Route ENEPA DCT DORAS DCT TINTO DCT DOBIM R16 GUNPI DCT LAGEN
Aircraft A319/M-SDE3FGHIRWY/LB1

Departure

Time 2026-05-08 15:17
Airport Comiso Airport (LICB)

Arrival

Time 2026-05-08 16:58
Airport Cuneo International Airport (LIMZ)
Time Latitude Longitude Altitude Speed Heading
2026-05-08 15:11 36.99817 14.60810 742 ft 0 kts 97°
2026-05-08 15:12 36.99815 14.60820 742 ft 2 kts 113°
2026-05-08 15:12 36.99799 14.60827 742 ft 3 kts 158°
2026-05-08 15:12 36.99786 14.60850 742 ft 4 kts 56°
2026-05-08 15:13 36.99808 14.60889 743 ft 7 kts 58°
2026-05-08 15:13 36.99847 14.60961 743 ft 11 kts 51°
2026-05-08 15:13 36.99906 14.61049 746 ft 14 kts 51°
2026-05-08 15:13 36.99970 14.61145 749 ft 15 kts 50°
2026-05-08 15:14 37.00041 14.61249 758 ft 13 kts 49°
2026-05-08 15:14 37.00100 14.61339 762 ft 14 kts 52°
2026-05-08 15:14 37.00159 14.61430 770 ft 12 kts 49°
2026-05-08 15:14 37.00215 14.61512 774 ft 12 kts 49°
2026-05-08 15:15 37.00275 14.61598 778 ft 13 kts 49°
2026-05-08 15:15 37.00340 14.61690 783 ft 14 kts 49°
2026-05-08 15:15 37.00353 14.61799 787 ft 14 kts 131°
2026-05-08 15:15 37.00296 14.61839 789 ft 8 kts 165°
2026-05-08 15:16 37.00228 14.61842 789 ft 11 kts 213°
2026-05-08 15:16 37.00214 14.61825 788 ft 1 kts 229°
2026-05-08 15:16 37.00147 14.61728 780 ft 44 kts 230°
2026-05-08 15:16 36.99784 14.61182 749 ft 116 kts 230°
2026-05-08 15:17 36.99130 14.60216 737 ft 169 kts 232°
2026-05-08 15:17 36.98361 14.59070 1232 ft 174 kts 231°
2026-05-08 15:17 36.97709 14.57830 1851 ft 175 kts 257°
2026-05-08 15:17 36.97625 14.56370 2552 ft 172 kts 275°
2026-05-08 15:18 36.97793 14.54886 3102 ft 177 kts 285°
2026-05-08 15:18 36.98224 14.53423 3632 ft 186 kts 296°
2026-05-08 15:18 36.99041 14.52114 4132 ft 201 kts 315°
2026-05-08 15:18 37.00262 14.51139 4666 ft 219 kts 331°
2026-05-08 15:19 37.01732 14.50461 5186 ft 235 kts 336°
2026-05-08 15:19 37.03353 14.49840 5675 ft 252 kts 338°
2026-05-08 15:19 37.05070 14.49187 6166 ft 267 kts 336°
2026-05-08 15:19 37.06858 14.48398 6776 ft 277 kts 335°
2026-05-08 15:20 37.08685 14.47651 7622 ft 280 kts 336°
2026-05-08 15:20 37.10535 14.46923 8493 ft 279 kts 335°
2026-05-08 15:20 37.12382 14.46160 9310 ft 280 kts 335°
2026-05-08 15:20 37.14222 14.45387 10088 ft 283 kts 334°
2026-05-08 15:21 37.16098 14.44597 10716 ft 290 kts 335°
2026-05-08 15:21 37.18052 14.43773 11062 ft 305 kts 335°
2026-05-08 15:21 37.20081 14.42843 11375 ft 319 kts 332°
2026-05-08 15:21 37.22163 14.41648 11691 ft 333 kts 327°
2026-05-08 15:22 37.24214 14.40197 12122 ft 342 kts 324°
2026-05-08 15:22 37.26241 14.38689 12806 ft 343 kts 324°
2026-05-08 15:22 37.28295 14.37145 13487 ft 345 kts 324°
2026-05-08 15:22 37.30337 14.35609 14129 ft 348 kts 324°
2026-05-08 15:23 37.32413 14.34048 14768 ft 349 kts 323°
2026-05-08 15:23 37.34496 14.32478 15456 ft 352 kts 324°
2026-05-08 15:23 37.36586 14.30903 16075 ft 353 kts 323°
2026-05-08 15:23 37.38714 14.29298 16692 ft 355 kts 323°
2026-05-08 15:24 37.40832 14.27695 17291 ft 358 kts 323°
2026-05-08 15:24 37.42964 14.26083 17898 ft 360 kts 323°
2026-05-08 15:24 37.45079 14.24481 18476 ft 362 kts 323°
2026-05-08 15:24 37.47269 14.22824 19020 ft 366 kts 323°
2026-05-08 15:25 37.49453 14.21171 19515 ft 370 kts 323°
2026-05-08 15:25 37.51656 14.19500 20037 ft 372 kts 323°
2026-05-08 15:25 37.53870 14.17822 20546 ft 374 kts 323°
2026-05-08 15:25 37.56111 14.16121 20985 ft 379 kts 323°
2026-05-08 15:26 37.58364 14.14408 21453 ft 381 kts 323°
2026-05-08 15:26 37.60657 14.12665 21937 ft 384 kts 323°
2026-05-08 15:26 37.62934 14.10931 22375 ft 387 kts 324°
2026-05-08 15:26 37.65261 14.09160 22816 ft 390 kts 323°
2026-05-08 15:27 37.67571 14.07399 23234 ft 393 kts 324°
2026-05-08 15:27 37.69933 14.05600 23638 ft 396 kts 323°
2026-05-08 15:27 37.72286 14.03806 24060 ft 399 kts 323°
2026-05-08 15:27 37.74678 14.02008 24475 ft 402 kts 325°
2026-05-08 15:28 37.77147 14.00341 24884 ft 406 kts 328°
2026-05-08 15:28 37.79704 13.98821 25267 ft 411 kts 330°
2026-05-08 15:28 37.82381 13.97418 25654 ft 414 kts 332°
2026-05-08 15:28 37.85039 13.96076 26064 ft 416 kts 332°
2026-05-08 15:29 37.87725 13.94728 26450 ft 417 kts 332°
2026-05-08 15:29 37.90413 13.93383 26816 ft 419 kts 332°
2026-05-08 15:29 37.93131 13.92017 27172 ft 422 kts 332°
2026-05-08 15:29 37.95865 13.90644 27500 ft 424 kts 332°
2026-05-08 15:30 37.98603 13.89265 27813 ft 426 kts 332°
2026-05-08 15:30 38.01359 13.87875 28129 ft 429 kts 332°
2026-05-08 15:30 38.04163 13.86462 28463 ft 430 kts 332°
2026-05-08 15:30 38.06931 13.85065 28882 ft 429 kts 332°
2026-05-08 15:31 38.09672 13.83683 29334 ft 427 kts 332°
2026-05-08 15:31 38.12446 13.82283 29765 ft 425 kts 332°
2026-05-08 15:31 38.15169 13.80904 30146 ft 424 kts 332°
2026-05-08 15:31 38.17892 13.79524 30546 ft 423 kts 331°
2026-05-08 15:32 38.20618 13.78143 30956 ft 422 kts 331°
2026-05-08 15:32 38.23327 13.76768 31347 ft 421 kts 331°
2026-05-08 15:32 38.26047 13.75388 31754 ft 419 kts 331°
2026-05-08 15:32 38.28754 13.74014 32150 ft 418 kts 331°
2026-05-08 15:33 38.31440 13.72650 32528 ft 416 kts 331°
2026-05-08 15:33 38.34135 13.71276 32864 ft 415 kts 331°
2026-05-08 15:33 38.36809 13.69917 33190 ft 414 kts 330°
2026-05-08 15:33 38.39479 13.68556 33485 ft 414 kts 330°
2026-05-08 15:34 38.42144 13.67194 33820 ft 413 kts 330°
2026-05-08 15:34 38.44776 13.65851 34153 ft 412 kts 330°
2026-05-08 15:34 38.47431 13.64494 34457 ft 411 kts 330°
2026-05-08 15:34 38.50085 13.63134 34703 ft 412 kts 330°
2026-05-08 15:35 38.52737 13.61777 34919 ft 413 kts 330°
2026-05-08 15:35 38.55400 13.60409 35105 ft 413 kts 330°
2026-05-08 15:35 38.58072 13.59038 35335 ft 413 kts 330°
2026-05-08 15:35 38.60754 13.57663 35536 ft 414 kts 330°
2026-05-08 15:36 38.63410 13.56299 35728 ft 414 kts 330°
2026-05-08 15:36 38.65183 13.55389 35881 ft 413 kts 330°
2026-05-08 15:36 38.71413 13.52183 35963 ft 415 kts 330°
2026-05-08 15:37 38.76740 13.49440 35965 ft 414 kts 330°
2026-05-08 15:37 38.82093 13.46679 35961 ft 414 kts 330°
2026-05-08 15:38 38.87414 13.43928 35965 ft 415 kts 330°
2026-05-08 15:38 38.92756 13.41162 35958 ft 414 kts 330°
2026-05-08 15:39 38.98110 13.38387 35962 ft 416 kts 330°
2026-05-08 15:39 39.03442 13.35615 35956 ft 416 kts 330°
2026-05-08 15:40 39.08799 13.32828 35961 ft 415 kts 329°
2026-05-08 15:40 39.14134 13.30049 35964 ft 414 kts 329°
2026-05-08 15:41 39.19496 13.27248 35972 ft 414 kts 329°
2026-05-08 15:41 39.24805 13.24475 35971 ft 415 kts 329°
2026-05-08 15:42 39.30152 13.21673 35970 ft 414 kts 329°
2026-05-08 15:42 39.35472 13.18882 35967 ft 414 kts 329°
2026-05-08 15:43 39.40805 13.16077 35965 ft 415 kts 329°
2026-05-08 15:43 39.46165 13.13256 35966 ft 415 kts 329°
2026-05-08 15:44 39.51474 13.10458 35968 ft 415 kts 329°
2026-05-08 15:44 39.56733 13.07395 35970 ft 410 kts 324°
2026-05-08 15:45 39.61635 13.03750 35960 ft 405 kts 319°
2026-05-08 15:45 39.66192 12.99536 35970 ft 401 kts 315°
2026-05-08 15:46 39.70554 12.95088 35970 ft 401 kts 314°
2026-05-08 15:46 39.74919 12.90608 35962 ft 400 kts 314°
2026-05-08 15:47 39.79282 12.86121 35964 ft 400 kts 314°
2026-05-08 15:47 39.83639 12.81634 35959 ft 402 kts 314°
2026-05-08 15:48 39.90198 12.74863 35962 ft 402 kts 314°
2026-05-08 15:49 39.94538 12.70375 35968 ft 401 kts 314°
2026-05-08 15:49 39.98901 12.65854 35965 ft 401 kts 314°
2026-05-08 15:50 40.03251 12.61336 35964 ft 402 kts 314°
2026-05-08 15:50 40.07615 12.56802 35965 ft 402 kts 314°
2026-05-08 15:51 40.11999 12.52235 35966 ft 403 kts 314°
2026-05-08 15:51 40.16363 12.47680 35977 ft 404 kts 314°
2026-05-08 15:52 40.20719 12.43120 35768 ft 402 kts 314°
2026-05-08 15:52 40.22930 12.40809 35879 ft 403 kts 314°
2026-05-08 15:52 40.25117 12.38518 35858 ft 405 kts 314°
2026-05-08 15:53 40.29487 12.33931 35937 ft 404 kts 314°
2026-05-08 15:53 40.33839 12.29362 35964 ft 404 kts 314°
2026-05-08 15:54 40.38218 12.24755 35968 ft 404 kts 314°
2026-05-08 15:54 40.42592 12.20144 35968 ft 404 kts 314°
2026-05-08 15:55 40.46991 12.15501 35967 ft 405 kts 313°
2026-05-08 15:55 40.53558 12.08555 35963 ft 405 kts 314°
2026-05-08 15:56 40.57932 12.03914 35957 ft 405 kts 314°
2026-05-08 15:56 40.62307 11.99269 35957 ft 405 kts 314°
2026-05-08 15:57 40.66666 11.94633 35957 ft 405 kts 313°
2026-05-08 15:57 40.71039 11.89970 35958 ft 406 kts 314°
2026-05-08 15:58 40.75419 11.85297 35958 ft 406 kts 314°
2026-05-08 15:58 40.79783 11.80633 35958 ft 407 kts 314°
2026-05-08 15:59 40.84188 11.75912 35958 ft 406 kts 314°
2026-05-08 15:59 40.88549 11.71233 35952 ft 406 kts 313°
2026-05-08 16:00 40.92930 11.66521 35958 ft 405 kts 314°
2026-05-08 16:00 40.97274 11.61841 35960 ft 406 kts 313°
2026-05-08 16:01 41.01663 11.57107 35958 ft 407 kts 313°
2026-05-08 16:01 41.06052 11.52360 35955 ft 408 kts 314°
2026-05-08 16:02 41.10417 11.47631 35954 ft 408 kts 314°
2026-05-08 16:02 41.14796 11.42879 35954 ft 408 kts 313°
2026-05-08 16:03 41.19194 11.38101 35957 ft 409 kts 314°
2026-05-08 16:03 41.23596 11.33306 35960 ft 409 kts 313°
2026-05-08 16:04 41.27961 11.28546 35957 ft 409 kts 313°
2026-05-08 16:04 41.32368 11.23728 35956 ft 410 kts 313°
2026-05-08 16:05 41.36752 11.18932 35958 ft 411 kts 313°
2026-05-08 16:05 41.41170 11.14082 35957 ft 412 kts 313°
2026-05-08 16:06 41.45562 11.09261 35958 ft 411 kts 314°
2026-05-08 16:06 41.50209 11.04719 35958 ft 417 kts 319°
2026-05-08 16:07 41.55049 11.00487 35957 ft 419 kts 319°
2026-05-08 16:07 41.59929 10.96240 35958 ft 419 kts 319°
2026-05-08 16:08 41.64775 10.92012 35957 ft 419 kts 319°
2026-05-08 16:08 41.69682 10.87722 35957 ft 420 kts 320°
2026-05-08 16:09 41.73737 10.84169 35957 ft 420 kts 320°
2026-05-08 16:09 41.79438 10.79164 35958 ft 421 kts 320°
2026-05-08 16:10 41.84343 10.74856 35956 ft 422 kts 320°
2026-05-08 16:10 41.89230 10.70551 35959 ft 422 kts 320°
2026-05-08 16:11 41.94107 10.66246 35957 ft 422 kts 320°
2026-05-08 16:11 41.99001 10.61919 35959 ft 422 kts 320°
2026-05-08 16:12 42.03904 10.57577 35958 ft 422 kts 320°
2026-05-08 16:12 42.08790 10.53242 35957 ft 422 kts 320°
2026-05-08 16:13 42.13688 10.48889 35957 ft 421 kts 320°
2026-05-08 16:13 42.18604 10.44507 35956 ft 423 kts 320°
2026-05-08 16:14 42.23488 10.40151 35956 ft 423 kts 320°
2026-05-08 16:14 42.28387 10.35772 35958 ft 424 kts 320°
2026-05-08 16:15 42.33302 10.31366 35959 ft 423 kts 320°
2026-05-08 16:15 42.38168 10.26998 35958 ft 422 kts 320°
2026-05-08 16:16 42.43059 10.22601 35957 ft 422 kts 320°
2026-05-08 16:16 42.47941 10.18201 35958 ft 423 kts 320°
2026-05-08 16:17 42.52022 10.14518 35957 ft 423 kts 320°
2026-05-08 16:17 42.57687 10.09396 35957 ft 422 kts 320°
2026-05-08 16:18 42.62580 10.04964 35959 ft 423 kts 320°
2026-05-08 16:18 42.67455 10.00539 35961 ft 422 kts 320°
2026-05-08 16:19 42.72333 9.96101 35962 ft 423 kts 320°
2026-05-08 16:19 42.77210 9.91656 35972 ft 423 kts 320°
2026-05-08 16:20 42.82082 9.87205 35974 ft 422 kts 320°
2026-05-08 16:20 42.86937 9.82762 35977 ft 422 kts 320°
2026-05-08 16:21 42.91481 9.77823 35980 ft 416 kts 311°
2026-05-08 16:21 42.95333 9.72016 35984 ft 410 kts 303°
2026-05-08 16:22 42.97971 9.66680 35977 ft 407 kts 296°
2026-05-08 16:22 43.00930 9.58688 35965 ft 406 kts 292°
2026-05-08 16:23 43.03319 9.51727 35973 ft 406 kts 292°
2026-05-08 16:23 43.05708 9.44744 35976 ft 407 kts 292°
2026-05-08 16:24 43.08088 9.37728 35972 ft 408 kts 291°
2026-05-08 16:24 43.10469 9.30733 35978 ft 409 kts 294°
2026-05-08 16:25 43.13644 9.24224 35989 ft 416 kts 305°
2026-05-08 16:25 43.17823 9.18733 35994 ft 423 kts 317°
2026-05-08 16:26 43.22895 9.14578 35988 ft 432 kts 330°
2026-05-08 16:26 43.28460 9.11447 35931 ft 435 kts 332°
2026-05-08 16:27 43.31273 9.09918 35696 ft 433 kts 332°
2026-05-08 16:27 43.34062 9.08406 35464 ft 431 kts 332°
2026-05-08 16:27 43.36837 9.06894 35231 ft 429 kts 332°
2026-05-08 16:27 43.39592 9.05394 34998 ft 426 kts 332°
2026-05-08 16:28 43.42327 9.03902 34767 ft 424 kts 331°
2026-05-08 16:28 43.45071 9.02394 34495 ft 424 kts 331°
2026-05-08 16:28 43.47810 9.00893 34058 ft 424 kts 331°
2026-05-08 16:28 43.50539 8.99388 33442 ft 425 kts 332°
2026-05-08 16:29 43.53255 8.97894 32758 ft 425 kts 332°
2026-05-08 16:29 43.55981 8.96392 32044 ft 425 kts 332°
2026-05-08 16:29 43.58726 8.94882 31331 ft 425 kts 332°
2026-05-08 16:29 43.61450 8.93379 30608 ft 425 kts 333°
2026-05-08 16:30 43.64215 8.91855 29865 ft 426 kts 333°
2026-05-08 16:30 43.66940 8.90350 29117 ft 427 kts 333°
2026-05-08 16:30 43.69704 8.88823 28292 ft 430 kts 333°
2026-05-08 16:30 43.72451 8.87299 27630 ft 427 kts 334°
2026-05-08 16:31 43.75186 8.85792 27118 ft 422 kts 334°
2026-05-08 16:31 43.77902 8.84292 26590 ft 418 kts 334°
2026-05-08 16:31 43.80557 8.82820 26065 ft 414 kts 334°
2026-05-08 16:31 43.83225 8.81338 25511 ft 410 kts 335°
2026-05-08 16:32 43.85851 8.79880 24975 ft 407 kts 335°
2026-05-08 16:32 43.88448 8.78433 24451 ft 404 kts 335°
2026-05-08 16:32 43.91071 8.76971 23909 ft 402 kts 336°
2026-05-08 16:32 43.93648 8.75535 23363 ft 400 kts 336°
2026-05-08 16:33 43.96220 8.74105 22841 ft 397 kts 336°
2026-05-08 16:33 43.98741 8.72697 22334 ft 394 kts 336°
2026-05-08 16:33 44.01272 8.71285 21825 ft 392 kts 336°
2026-05-08 16:33 44.03796 8.69875 21306 ft 388 kts 336°
2026-05-08 16:34 44.06284 8.68485 20809 ft 386 kts 337°
2026-05-08 16:34 44.08782 8.67088 20299 ft 384 kts 337°
2026-05-08 16:34 44.11227 8.65720 19799 ft 383 kts 337°
2026-05-08 16:34 44.13678 8.64346 19291 ft 381 kts 337°
2026-05-08 16:35 44.16125 8.62973 18802 ft 378 kts 337°
2026-05-08 16:35 44.18580 8.61592 18302 ft 376 kts 337°
2026-05-08 16:35 44.20961 8.60252 17804 ft 374 kts 338°
2026-05-08 16:35 44.23360 8.58901 17316 ft 372 kts 338°
2026-05-08 16:36 44.25755 8.57552 16827 ft 371 kts 338°
2026-05-08 16:36 44.28143 8.56203 16333 ft 370 kts 338°
2026-05-08 16:36 44.30525 8.54856 15836 ft 369 kts 338°
2026-05-08 16:36 44.32896 8.53516 15325 ft 368 kts 338°
2026-05-08 16:37 44.35275 8.52171 14828 ft 366 kts 338°
2026-05-08 16:37 44.37608 8.50777 14315 ft 363 kts 333°
2026-05-08 16:37 44.39707 8.48916 13828 ft 362 kts 322°
2026-05-08 16:37 44.41546 8.46522 13355 ft 360 kts 313°
2026-05-08 16:38 44.43202 8.43926 12870 ft 358 kts 311°
2026-05-08 16:38 44.44825 8.41308 12392 ft 356 kts 311°
2026-05-08 16:38 44.46434 8.38709 11916 ft 354 kts 311°
2026-05-08 16:38 44.48040 8.36126 11437 ft 353 kts 311°
2026-05-08 16:39 44.49652 8.33540 10998 ft 348 kts 311°
2026-05-08 16:39 44.51216 8.31033 10779 ft 335 kts 311°
2026-05-08 16:39 44.52710 8.28638 10619 ft 323 kts 311°
2026-05-08 16:39 44.54163 8.26306 10456 ft 311 kts 311°
2026-05-08 16:40 44.55559 8.24067 10313 ft 299 kts 311°
2026-05-08 16:40 44.56899 8.21916 10179 ft 288 kts 311°
2026-05-08 16:40 44.58188 8.19845 9989 ft 281 kts 311°
2026-05-08 16:40 44.59466 8.17785 9649 ft 280 kts 311°
2026-05-08 16:41 44.60735 8.15737 9523 ft 273 kts 311°
2026-05-08 16:41 44.61975 8.13734 9523 ft 270 kts 311°
2026-05-08 16:41 44.63197 8.11762 9525 ft 268 kts 311°
2026-05-08 16:42 44.65629 8.07827 9518 ft 265 kts 311°
2026-05-08 16:42 44.66841 8.05865 9518 ft 264 kts 311°
2026-05-08 16:42 44.68033 8.03937 9517 ft 263 kts 311°
2026-05-08 16:42 44.69232 8.02002 9522 ft 262 kts 311°
2026-05-08 16:43 44.70417 8.00085 9516 ft 261 kts 311°
2026-05-08 16:43 44.71606 7.98161 9517 ft 260 kts 312°
2026-05-08 16:43 44.72789 7.96247 9519 ft 258 kts 312°
2026-05-08 16:43 44.73969 7.94336 9494 ft 258 kts 311°
2026-05-08 16:44 44.75116 7.92466 9502 ft 248 kts 309°
2026-05-08 16:44 44.75850 7.90321 9514 ft 244 kts 275°
2026-05-08 16:44 44.75551 7.88046 9350 ft 240 kts 242°
2026-05-08 16:44 44.74641 7.86092 9000 ft 241 kts 233°
2026-05-08 16:45 44.73634 7.84187 8661 ft 242 kts 234°
2026-05-08 16:45 44.72671 7.82274 8346 ft 242 kts 236°
2026-05-08 16:45 44.71732 7.80309 8073 ft 240 kts 237°
2026-05-08 16:45 44.70835 7.78374 7759 ft 237 kts 237°
2026-05-08 16:46 44.69944 7.76435 7313 ft 234 kts 234°
2026-05-08 16:46 44.68809 7.74844 6867 ft 231 kts 214°
2026-05-08 16:46 44.67487 7.73648 6530 ft 224 kts 211°
2026-05-08 16:46 44.66170 7.72510 6233 ft 217 kts 211°
2026-05-08 16:47 44.64968 7.71458 6168 ft 190 kts 212°
2026-05-08 16:47 44.63940 7.70541 6167 ft 162 kts 212°
2026-05-08 16:47 44.63022 7.69719 6120 ft 152 kts 212°
2026-05-08 16:47 44.62136 7.68926 5937 ft 151 kts 212°
2026-05-08 16:48 44.61308 7.68060 5636 ft 150 kts 233°
2026-05-08 16:48 44.61035 7.66710 5336 ft 148 kts 276°
2026-05-08 16:48 44.61188 7.65285 5042 ft 148 kts 285°
2026-05-08 16:48 44.61694 7.64111 4651 ft 142 kts 328°
2026-05-08 16:49 44.62580 7.63503 4308 ft 141 kts 341°
2026-05-08 16:49 44.63501 7.63035 3949 ft 141 kts 343°
2026-05-08 16:49 44.64422 7.62588 3599 ft 140 kts 343°
2026-05-08 16:49 44.65331 7.62148 3530 ft 139 kts 344°
2026-05-08 16:50 44.66280 7.61982 3562 ft 139 kts
2026-05-08 16:50 44.67239 7.62183 3578 ft 140 kts 13°
2026-05-08 16:50 44.68195 7.62446 3579 ft 140 kts 13°
2026-05-08 16:50 44.69149 7.62717 3585 ft 140 kts 13°
2026-05-08 16:51 44.70117 7.62993 3583 ft 140 kts 13°
2026-05-08 16:51 44.71064 7.63263 3589 ft 140 kts 13°
2026-05-08 16:51 44.72031 7.63541 3585 ft 140 kts 13°
2026-05-08 16:51 44.72939 7.63962 3574 ft 139 kts 39°
2026-05-08 16:52 44.73367 7.65139 3580 ft 141 kts 91°
2026-05-08 16:52 44.73127 7.66474 3601 ft 141 kts 106°
2026-05-08 16:52 44.72845 7.67783 3540 ft 140 kts 104°
2026-05-08 16:52 44.72469 7.69041 3500 ft 141 kts 124°
2026-05-08 16:53 44.70987 7.70791 3490 ft 141 kts 151°
2026-05-08 16:53 44.70088 7.71325 3484 ft 142 kts 164°
2026-05-08 16:53 44.69099 7.71539 3488 ft 143 kts 172°
2026-05-08 16:54 44.68113 7.71668 3484 ft 143 kts 173°
2026-05-08 16:54 44.67112 7.71789 3480 ft 143 kts 173°
2026-05-08 16:54 44.66126 7.71892 3480 ft 144 kts 183°
2026-05-08 16:54 44.65161 7.71514 3392 ft 145 kts 205°
2026-05-08 16:55 44.64269 7.70839 3195 ft 144 kts 212°
2026-05-08 16:55 44.63426 7.70096 3002 ft 143 kts 214°
2026-05-08 16:55 44.62590 7.69337 2813 ft 143 kts 214°
2026-05-08 16:55 44.61748 7.68576 2624 ft 143 kts 213°
2026-05-08 16:56 44.60912 7.67830 2438 ft 142 kts 213°
2026-05-08 16:56 44.60082 7.67090 2258 ft 141 kts 214°
2026-05-08 16:56 44.59250 7.66347 2070 ft 141 kts 213°
2026-05-08 16:56 44.58420 7.65605 1890 ft 141 kts 213°
2026-05-08 16:57 44.57600 7.64874 1711 ft 141 kts 212°
2026-05-08 16:57 44.56766 7.64137 1534 ft 140 kts 214°
2026-05-08 16:57 44.55954 7.63388 1350 ft 140 kts 215°
2026-05-08 16:57 44.55154 7.62662 1231 ft 130 kts 214°
2026-05-08 16:58 44.54516 7.62107 1253 ft 83 kts 211°
2026-05-08 16:58 44.54153 7.61784 1264 ft 44 kts 214°
2026-05-08 16:58 44.53975 7.61629 1269 ft 24 kts 214°
2026-05-08 16:58 44.53862 7.61500 1272 ft 14 kts 230°
2026-05-08 16:59 44.53869 7.61521 1272 ft 7 kts 34°
2026-05-08 16:59 44.53920 7.61575 1270 ft 11 kts 35°
2026-05-08 16:59 44.53988 7.61639 1269 ft 12 kts 34°
2026-05-08 16:59 44.54065 7.61711 1267 ft 14 kts 34°
2026-05-08 17:00 44.54162 7.61799 1264 ft 18 kts 32°
2026-05-08 17:00 44.54276 7.61898 1259 ft 20 kts 32°
2026-05-08 17:00 44.54403 7.62012 1255 ft 22 kts 32°
2026-05-08 17:00 44.54534 7.62127 1253 ft 18 kts 25°
2026-05-08 17:01 44.54626 7.62068 1252 ft 11 kts 303°
2026-05-08 17:01 44.54663 7.61986 1253 ft 9 kts 304°
2026-05-08 17:01 44.54699 7.61942 1254 ft 5 kts 319°
2026-05-08 17:01 44.54718 7.61917 1254 ft 2 kts 325°
2026-05-08 17:02 44.54729 7.61910 1254 ft 2 kts 340°
2026-05-08 17:02 44.54737 7.61907 1253 ft 0 kts 345°